Weather Roundup
Issued by NWS

Home | Current Version | Previous Version | Text Only | Print | Product List | Glossary On
Versions: 1 2 3 4 5 6 7 8 9 10 11 12 13 14 15 16 17 18 19 20 21 22 23 24 25 26 27 28 29 30 31 32 33 34 35 36 37 38 39 40 41 42 43 44 45 46 47 48 49 50
000
NZUS93 KARX 191659
HRRWXR

CURRENT HOURLY OBSERVATIONS ACROSS
MUCH OF THE UPPER MISSISSIPPI VALLEY
NATIONAL WEATHER SERVICE LA CROSSE WI
1200 PM CDT FRI SEP 19 2014


...SOUTHEAST MINNESOTA...


CITY           SKY/WX    TMP DP  RH WIND       PRES   REMARKS
ROCHESTER      MOSUNNY   69  56  62 S22G36    29.89F
ROCHESTER/MAYO PTSUNNY   68  53  58 S23G33    29.88F
WINONA         PTSUNNY   70  55  60 S6G17     29.91F
AUSTIN         PTSUNNY   68  57  68 S23       29.88F
ALBERT LEA     MOSUNNY   72  57  60 S22G30    29.84F
DODGE CENTER   MOSUNNY   70  57  64 S26G35    29.86F
PRESTON        MOSUNNY   68  59  73 S24G33    29.93F
OWATONNA       MOSUNNY   72  57  60 S21G30    29.81F
FARIBAULT      MOSUNNY   73  55  53 S22G32    29.79F
$$

...ELSEWHERE IN MINNESOTA...


CITY           SKY/WX    TMP DP  RH WIND       PRES   REMARKS
MINNEAPOLIS    PTSUNNY   71  58  63 S25G32    29.76F
INTNL FALLS    CLOUDY    60  57  89 VRB7      29.61S
DULUTH         CLOUDY    62  53  72 SW20G29   29.73R
RED WING       CLOUDY    70  55  60 S12       29.83F
REDWOOD FALLS  CLOUDY    69  62  78 S16G28    29.71F
MANKATO        CLOUDY    72  57  60 S18G35    29.77F
WORTHINGTON    PTSUNNY   70  63  78 S22G31    29.76F
FAIRMONT       PTSUNNY   72  54  53 S26G33    29.79F
$$

...SOUTHWEST WISCONSIN...


CITY           SKY/WX    TMP DP  RH WIND       PRES   REMARKS
LA CROSSE      MOSUNNY   71  54  54 S21G31    29.94F
PRAIRIE DU CHI SUNNY     68  53  58 SE14G20   30.00F
BOSCOBEL       SUNNY     71  54  54 S13G24    30.01F
LONE ROCK      NOT AVBL
PLATTEVILLE    SUNNY     68  55  64 S16       30.07F
FORT MC COY    SUNNY     70  52  52 S13G28    29.97F
VIROQUA        FAIR      66  55  66 S15G24    29.99F
WIS DELLS      SUNNY     68  51  54 S14G21    30.04F
$$

...ELSEWHERE IN WISCONSIN...


CITY           SKY/WX    TMP DP  RH WIND       PRES   REMARKS
MILWAUKEE      PTSUNNY   70  51  51 SW17G26   30.10F
MADISON        MOSUNNY   70  51  51 S20G26    30.06F
GREEN BAY      SUNNY     68  53  58 S14G23    30.04F
EAU CLAIRE     NOT AVBL
BLACK RVR FLS  FAIR      68  52  55 S12G20    29.95F
MEDFORD        PTSUNNY   62  52  69 S17G23    29.95F
WAUSAU         PTSUNNY   64  51  62 S17G24    29.96F
WIS RAPIDS     MOSUNNY   68  51  54 S12       30.01F
MARSHFIELD     MOSUNNY   67  53  61 S16G25    29.96F
RICE LAKE      PTSUNNY   65  53  67 SE17G25   29.85F
$$

...NORTHEAST IOWA...


CITY           SKY/WX    TMP DP  RH WIND       PRES   REMARKS
WATERLOO       MOSUNNY   71  56  58 S24G30    29.97F
DUBUQUE        SUNNY     69  55  60 S20       30.06F
DECORAH        SUNNY     68  55  64 S16G26    29.97F
MASON CITY     MOSUNNY   72  60  66 S23G33    29.90F
CHARLES CITY   MOSUNNY   68  55  64 S20G31    29.96F
OELWEIN        SUNNY     70  55  60 S25G31    30.01F
$$

...ELSEWHERE IN IOWA...


CITY           SKY/WX    TMP DP  RH WIND       PRES   REMARKS
DES MOINES     CLOUDY    74  61  63 S21       29.97F
IOWA CITY      SUNNY     71  57  61 S16G25    30.05F
FORT DODGE     SUNNY     73  61  64 S16G24    29.90S
MARSHALLTOWN   PTSUNNY   71  59  65 S21G26    29.97F
CEDAR RAPIDS   SUNNY     70  56  61 S18G26    30.01F
$$

...NORTHERN ILLINOIS...


CITY           SKY/WX    TMP DP  RH WIND       PRES   REMARKS
CHICAGO-OHARE  MOSUNNY   71  51  49 S14G22    30.13F
DUPAGE         SUNNY     71  50  47 S17       30.13F
CHICAGO-MIDWAY MOSUNNY   72  48  42 S15       30.13F
MOLINE         SUNNY     71  52  50 S14       30.08F
ROCKFORD       MOSUNNY   71  50  47 S18       30.12F
STERLING       SUNNY     72  52  49 S9G16     30.10F
PEORIA         SUNNY     73  52  47 SE10      30.11F
$$

NOTE: "FAIR" INDICATES FEW OR NO CLOUDS BELOW 12,000 FEET WITH NO
SIGNIFICANT WEATHER AND/OR OBSTRUCTIONS TO VISIBILITY. WIND
SPEEDS ARE IN MILES-PER-HOUR.



USA.gov is the U.S. government's official web portal to all federal, state and local government web resources and services.